{"data":{"norad_id":87335,"epoch":"2026-09-14T12:51:32.560128Z","epoch_age_seconds":529681,"freshness":"STALE","line1":"1 87335U          26257.53579352  .00013681  00000+0  66256-2 0  9992","line2":"2 87335  89.9932 267.6116 0084780  65.2045 295.7933 14.16492494425908","mean_motion":14.16492494,"eccentricity":0.008478,"inclination_deg":89.9932,"raan_deg":267.6116,"arg_perigee_deg":65.2045,"mean_anomaly_deg":295.7933,"bstar":0.0066256,"rev_number":42590,"period_min":101.65955739967,"perigee_km":776.06740669362,"apogee_km":898.41132838158,"semimajor_km":7215.3763675376,"source":"CELESTRAK","updated_at":"2026-09-20T09:00:32.473930Z"}}